TimeAEST,TemperatureF,Dew PointF,Humidity,Sea Level PressureIn,VisibilityMPH,Wind Direction,Wind SpeedMPH,Gust SpeedMPH,PrecipitationIn,Events,Conditions,WindDirDegrees,DateUTC
12:00 AM,75,68,74,29.89,,SSW,4.6,,,,,210,2012-10-27 14:00:00
12:00 AM,75.2,68.0,78,29.89,6.2,SSW,4.6,-,N/A,,Mostly Cloudy,210,2012-10-27 14:00:00
12:30 AM,75.2,68.0,78,29.86,6.2,Calm,Calm,-,N/A,,Mostly Cloudy,0,2012-10-27 14:30:00
1:00 AM,74,69,79,29.85,,Calm,Calm,,,,,,2012-10-27 15:00:00
1:00 AM,73.4,69.8,88,29.83,6.2,Calm,Calm,-,N/A,,Mostly Cloudy,0,2012-10-27 15:00:00
1:30 AM,73.4,69.8,88,29.83,6.2,SSE,4.6,-,N/A,,Mostly Cloudy,150,2012-10-27 15:30:00
2:00 AM,73.4,69.8,88,29.83,6.2,Calm,Calm,-,N/A,,Scattered Clouds,0,2012-10-27 16:00:00
2:30 AM,71.6,68.0,88,29.80,6.2,Calm,Calm,-,N/A,,Scattered Clouds,0,2012-10-27 16:30:00
3:00 AM,71,68,89,29.81,,Calm,Calm,,,,,,2012-10-27 17:00:00
3:00 AM,71.6,68.0,88,29.80,6.2,Calm,Calm,-,N/A,,Partly Cloudy,0,2012-10-27 17:00:00
3:30 AM,71.6,68.0,88,29.80,6.2,SSE,6.9,-,N/A,,Partly Cloudy,150,2012-10-27 17:30:00
4:00 AM,72,67,81,29.83,,SSE,6.9,,,,,160,2012-10-27 18:00:00
4:00 AM,71.6,68.0,88,29.80,6.2,SSE,6.9,-,N/A,,Partly Cloudy,160,2012-10-27 18:00:00
5:00 AM,69.8,66.2,88,29.83,6.2,SSE,9.2,-,N/A,,Partly Cloudy,160,2012-10-27 19:00:00
5:30 AM,69.8,66.2,88,29.86,6.2,Calm,Calm,-,N/A,,Partly Cloudy,0,2012-10-27 19:30:00
6:00 AM,69,67,89,29.86,19,Calm,Calm,,,,Partly Cloudy,,2012-10-27 20:00:00
6:00 AM,68.0,66.2,94,29.86,6.2,Calm,Calm,-,N/A,,Partly Cloudy,0,2012-10-27 20:00:00
6:30 AM,69.8,68.0,94,29.86,6.2,Calm,Calm,-,N/A,,Partly Cloudy,0,2012-10-27 20:30:00
7:00 AM,73,66,73,29.90,,South,3.5,,,,,170,2012-10-27 21:00:00
7:00 AM,73.4,66.2,78,29.89,6.2,South,3.5,-,N/A,,Partly Cloudy,170,2012-10-27 21:00:00
7:30 AM,77.0,66.2,69,29.89,6.2,SE,6.9,-,N/A,,Partly Cloudy,140,2012-10-27 21:30:00
8:00 AM,78.8,64.4,61,29.92,6.2,SSE,5.8,-,N/A,,Partly Cloudy,150,2012-10-27 22:00:00
8:30 AM,80.6,66.2,61,29.92,6.2,SE,5.8,-,N/A,,Partly Cloudy,130,2012-10-27 22:30:00
9:00 AM,82,64,46,29.93,19,ESE,6.9,,,,Partly Cloudy,120,2012-10-27 23:00:00
9:00 AM,82.4,64.4,54,29.92,6.2,ESE,6.9,-,N/A,,Partly Cloudy,120,2012-10-27 23:00:00
9:30 AM,80.6,64.4,58,29.92,6.2,ESE,9.2,-,N/A,,Scattered Clouds,120,2012-10-27 23:30:00
10:00 AM,83,65,45,29.95,,East,12.7,,,,,90,2012-10-28 00:00:00
10:00 AM,84.2,64.4,51,29.92,6.2,East,12.7,-,N/A,,Scattered Clouds,90,2012-10-28 00:00:00
10:30 AM,84.2,64.4,51,29.92,6.2,ESE,13.8,-,N/A,,Partly Cloudy,110,2012-10-28 00:30:00
11:00 AM,82.4,62.6,51,29.92,6.2,ESE,12.7,-,N/A,,Partly Cloudy,120,2012-10-28 01:00:00
11:30 AM,86.0,60.8,43,29.92,6.2,ESE,12.7,-,N/A,,Partly Cloudy,110,2012-10-28 01:30:00
12:00 PM,86,60,32,29.91,19,East,12.7,,,,Partly Cloudy,90,2012-10-28 02:00:00
12:00 PM,86.0,60.8,43,29.92,6.2,East,12.7,-,N/A,,Partly Cloudy,90,2012-10-28 02:00:00
12:30 PM,86.0,60.8,43,29.89,6.2,ESE,12.7,-,N/A,,Partly Cloudy,120,2012-10-28 02:30:00
1:00 PM,85,60,32,29.89,,ESE,12.7,,,,,110,2012-10-28 03:00:00
1:00 PM,84.2,59.0,42,29.89,6.2,ESE,12.7,-,N/A,,Partly Cloudy,110,2012-10-28 03:00:00
1:30 PM,86.0,62.6,45,29.86,6.2,East,12.7,-,N/A,,Partly Cloudy,90,2012-10-28 03:30:00
2:00 PM,86.0,64.4,48,29.86,6.2,East,16.1,-,N/A,,Partly Cloudy,80,2012-10-28 04:00:00
2:30 PM,84.2,64.4,51,29.86,6.2,East,17.3,-,N/A,,Partly Cloudy,90,2012-10-28 04:30:00
3:00 PM,85,64,39,29.86,19,ESE,16.1,,,,Partly Cloudy,110,2012-10-28 05:00:00
3:00 PM,86.0,64.4,48,29.86,6.2,ESE,16.1,-,N/A,,Partly Cloudy,110,2012-10-28 05:00:00
3:30 PM,84.2,60.8,45,29.86,6.2,SE,17.3,-,N/A,,Partly Cloudy,130,2012-10-28 05:30:00
4:00 PM,82.4,60.8,48,29.86,6.2,SE,19.6,-,N/A,,Scattered Clouds,130,2012-10-28 06:00:00
4:30 PM,82.4,60.8,48,29.86,6.2,SE,18.4,-,N/A,,Scattered Clouds,130,2012-10-28 06:30:00
5:00 PM,80.6,60.8,51,29.86,6.2,SE,17.3,-,N/A,,Partly Cloudy,130,2012-10-28 07:00:00
5:30 PM,80.6,62.6,54,29.86,6.2,SE,17.3,-,N/A,,Partly Cloudy,140,2012-10-28 07:30:00
6:00 PM,78,64,52,29.88,,SE,15.0,,,,,140,2012-10-28 08:00:00
6:00 PM,78.8,64.4,61,29.86,6.2,SE,15.0,-,N/A,,Partly Cloudy,140,2012-10-28 08:00:00
6:30 PM,77.0,64.4,65,29.89,6.2,SE,15.0,-,N/A,,Partly Cloudy,140,2012-10-28 08:30:00
7:00 PM,77,65,57,29.90,,SE,10.4,,,,,140,2012-10-28 09:00:00
7:00 PM,77.0,64.4,65,29.89,6.2,SE,10.4,-,N/A,,Partly Cloudy,140,2012-10-28 09:00:00
7:30 PM,75.2,64.4,69,29.89,6.2,SSE,9.2,-,N/A,,Partly Cloudy,150,2012-10-28 09:30:00
8:00 PM,75.2,64.4,69,29.89,6.2,SSE,8.1,-,N/A,,Partly Cloudy,160,2012-10-28 10:00:00
8:30 PM,75.2,64.4,69,29.92,6.2,South,8.1,-,N/A,,Scattered Clouds,170,2012-10-28 10:30:00
9:00 PM,75,65,63,29.93,,South,8.1,,,,,170,2012-10-28 11:00:00
9:00 PM,75.2,64.4,69,29.92,6.2,South,8.1,-,N/A,,Partly Cloudy,170,2012-10-28 11:00:00
9:30 PM,75.2,64.4,69,29.92,6.2,South,8.1,-,N/A,,Partly Cloudy,170,2012-10-28 11:30:00
10:00 PM,75,65,63,29.95,,South,8.1,,,,,180,2012-10-28 12:00:00
10:00 PM,75.2,64.4,69,29.95,6.2,South,8.1,-,N/A,,Partly Cloudy,180,2012-10-28 12:00:00
10:30 PM,75.2,64.4,69,29.95,6.2,South,8.1,-,N/A,,Scattered Clouds,190,2012-10-28 12:30:00
11:00 PM,75.2,64.4,69,29.95,6.2,South,8.1,-,N/A,,Mostly Cloudy,180,2012-10-28 13:00:00
11:30 PM,75.2,66.2,73,29.92,6.2,South,9.2,-,N/A,,Mostly Cloudy,180,2012-10-28 13:30:00